Arlington, TX

9:13 PM CST on November 23, 2017 (GMT -0600)
Arlington Municipal

Weather History for KGKY - December, 2012

Change the Weather History Date:

Saturday, December 29, 2012

  Actual Average (KRBD) Record (KRBD)
Temperature  
Mean Temperature 34 °F -  
Max Temperature 44 °F 54 °F 73 °F (1999)
Min Temperature 25 °F 35 °F 26 °F (2007)
Degree Days  
Heating Degree Days 30    
Moisture  
Dew Point 21 °F    
Average Humidity 64    
Maximum Humidity 89    
Minimum Humidity 38    
Precipitation  
Precipitation 0.00 in - - ()
Sea Level Pressure  
Sea Level Pressure 30.39 in    
Wind  
Wind Speed 5 mph (WNW)    
Max Wind Speed 10 mph    
Max Gust Speed -    
Visibility 10 miles    
Events      
Averages and records for this station are not official NWS values.
T = Trace of Precipitation, MM = Missing Value Source: NWS Daily Summary

Daily Weather History Graph

Daily Weather History Graph

Search for Another Location

Airport or City:

Trip Planner

Search our weather history database for the weather conditions in past years. The results will help you decide how hot, cold, wet, or windy it might be!

Date:

Astronomy

Dec. 29, 2012 Rise Set
Actual Time 7:29 AM CST 5:31 PM CST
Civil Twilight 7:02 AM CST 5:58 PM CST
Nautical Twilight 6:31 AM CST 6:29 PM CST
Astronomical Twilight 6:01 AM CST 6:59 PM CST
Moon 7:00 PM CST (12/29) 8:08 AM CST (12/29)
Length of Visible Light 10h 56m
Length of Day
10h 01m
Full, 98% of the Moon is Illuminated
Dec 29
Full
Jan 4
Last Quarter
Jan 11
New
Jan 18
First Quarter
Jan 26
Full

Hourly Weather History & Observations

Time (CST) Temp. Windchill Dew Point Humidity Pressure Visibility Wind Dir Wind Speed Gust Speed Precip Events Conditions
12:53 AM 28.9 °F 21.1 °F 21.0 °F 72% 30.24 in 10.0 mi WNW 8.1 mph - N/A   Clear
1:53 AM 28.0 °F 21.7 °F 19.9 °F 72% 30.26 in 10.0 mi WNW 5.8 mph - N/A   Clear
2:53 AM 28.0 °F 24.2 °F 19.0 °F 69% 30.27 in 10.0 mi West 3.5 mph - N/A   Clear
3:53 AM 25.0 °F 20.7 °F 19.9 °F 81% 30.31 in 10.0 mi WSW 3.5 mph - N/A   Clear
4:53 AM 26.1 °F 21.9 °F 19.9 °F 78% 30.33 in 10.0 mi West 3.5 mph - N/A   Clear
5:53 AM 26.1 °F 20.5 °F 19.9 °F 78% 30.36 in 10.0 mi West 4.6 mph - N/A   Clear
6:53 AM 25.0 °F 19.3 °F 19.9 °F 81% 30.38 in 10.0 mi WNW 4.6 mph - N/A   Clear
7:53 AM 26.1 °F 19.4 °F 19.0 °F 75% 30.41 in 10.0 mi NW 5.8 mph - N/A   Clear
8:53 AM 30.0 °F 24.1 °F 19.9 °F 66% 30.43 in 10.0 mi NW 5.8 mph - N/A   Clear
9:53 AM 34.0 °F 26.6 °F 18.0 °F 52% 30.45 in 10.0 mi NNW 9.2 mph - N/A   Clear
10:53 AM 37.0 °F 30.4 °F 17.1 °F 44% 30.46 in 10.0 mi NNW 9.2 mph - N/A   Clear
11:53 AM 39.9 °F 35.1 °F 19.0 °F 43% 30.45 in 10.0 mi Variable 6.9 mph - N/A   Clear
12:53 PM 42.1 °F 36.1 °F 19.0 °F 40% 30.42 in 10.0 mi NW 10.4 mph - N/A   Clear
1:53 PM 44.1 °F 38.6 °F 19.9 °F 38% 30.40 in 10.0 mi NNW 10.4 mph - N/A   Clear
2:53 PM 44.1 °F 38.6 °F 21.0 °F 40% 30.40 in 10.0 mi NNW 10.4 mph - N/A   Clear
3:53 PM 44.1 °F - 19.9 °F 38% 30.41 in 10.0 mi Calm Calm - N/A   Clear
4:53 PM 44.1 °F - 21.9 °F 42% 30.41 in 10.0 mi Calm Calm - N/A   Clear
5:53 PM 37.9 °F - 23.0 °F 55% 30.41 in 10.0 mi Calm Calm - N/A   Clear
6:53 PM 34.0 °F - 23.0 °F 64% 30.43 in 10.0 mi Calm Calm - N/A   Clear
7:53 PM 30.0 °F - 24.1 °F 79% 30.44 in 10.0 mi Calm Calm - N/A   Clear
8:53 PM 27.0 °F - 23.0 °F 85% 30.45 in 10.0 mi Calm Calm - N/A   Clear
9:53 PM 27.0 °F - 21.9 °F 81% 30.44 in 10.0 mi Calm Calm - N/A   Clear
10:53 PM 27.0 °F - 24.1 °F 89% 30.45 in 10.0 mi Calm Calm - N/A   Clear
11:53 PM 26.1 °F 21.9 °F 21.9 °F 84% 30.46 in 9.0 mi South 3.5 mph - N/A   Clear